Simultaneous Nadir Overpasses (SNOs) Predictions

Prediction of SNOs between GOES-17 and LANDSAT-8 Satellite Orbit:

Table of predicted SNOs for the next 14.0 days since TLE Epoch: 1/29/2022
Index Date Time (GOES-17) GOES-17 Lat,Lon LANDSAT-8 Lat,Lon Distance(km) Time Diff (sec)
1 01/29/2022 07:10:53 -0.00,-137.22 0.47,-134.99 253.17 80
2 01/29/2022 19:34:49 0.00,-137.22 0.60,-140.15 332.44 80
3 01/31/2022 19:22:37 0.01,-137.21 0.01,-137.19 3.05 80
4 02/02/2022 19:07:46 0.02,-137.21 -0.63,-134.24 338.07 80
5 02/03/2022 07:31:50 -0.03,-137.19 -0.48,-139.43 253.46 80
6 02/05/2022 07:16:58 -0.03,-137.18 0.11,-136.47 81.46 80
7 02/07/2022 07:04:47 -0.02,-137.17 0.77,-133.52 415.90 80
8 02/07/2022 19:28:41 0.02,-137.18 0.36,-138.67 170.09 80
9 02/09/2022 19:16:31 0.02,-137.15 -0.30,-135.72 163.57 80
10 02/10/2022 07:35:14 -0.02,-137.14 -0.81,-140.91 428.50 80
11 02/11/2022 19:04:19 0.00,-137.12 -0.91,-132.76 496.06 80
